Total_Precipitation_Accumulation
0.43 0.41 0.43 0.48 0.49 0.52 0.54 0.53 0.52 0.60 0.64 0.68 0.81 1.02 1.31 1.41 1.50 1.44 1.25 1.18 1.31 1.56 1.81 1.76 1.83 1.90 1.81 1.78 1.79 2.00 1.95 1.67 1.44 1.51 1.36 1.19 1.09 1.26 1.33 1.27 1.32 1.37 1.40
0.34 0.31 0.32 0.36 0.37 0.40 0.46 0.48 0.48 0.55 0.60 0.65 0.82 0.97 1.12 1.12 1.31 1.44 1.41 1.32 1.32 1.48 1.62 1.89 2.01 1.98 2.07 2.20 2.18 2.55 2.68 2.21 1.77 1.80 1.99 1.75 1.57 1.37 1.24 1.26 1.30 1.43 1.63
0.32 0.31 0.30 0.29 0.30 0.31 0.32 0.34 0.37 0.46 0.58 0.71 0.91 1.11 1.29 1.38 1.45 1.38 1.47 1.48 1.40 1.45 1.56 1.71 1.86 1.90 2.02 2.16 2.27 2.61 3.12 2.88 2.27 2.04 2.37 2.13 1.90 1.77 1.44 1.25 1.27 1.39 1.67
0.31 0.37 0.33 0.35 0.32 0.28 0.25 0.27 0.35 0.48 0.68 0.88 1.10 1.33 1.54 1.57 1.47 1.52 1.56 1.44 1.37 1.33 1.41 1.54 1.68 1.82 1.86 2.01 2.11 2.24 2.76 3.15 2.83 2.51 2.19 1.87 1.81 1.95 1.85 1.49 1.38 1.42 1.56
0.31 0.33 0.31 0.34 0.33 0.31 0.31 0.36 0.55 0.79 1.03 1.25 1.50 1.76 1.74 1.63 1.54 1.55 1.53 1.47 1.47 1.44 1.44 1.57 1.65 1.67 1.74 1.86 2.19 2.46 2.73 2.95 2.94 2.87 2.66 2.39 2.11 1.78 1.96 1.95 1.68 1.56 1.51
0.33 0.40 0.46 0.54 0.56 0.59 0.73 0.91 1.17 1.35 1.45 1.57 1.72 1.82 1.77 1.77 1.72 1.54 1.46 1.45 1.50 1.56 1.59 1.64 1.64 1.62 1.67 1.78 2.01 2.31 2.53 2.83 3.01 2.93 2.72 2.60 2.47 2.25 2.15 1.99 1.85 1.82 1.64
0.41 0.54 0.70 0.83 0.94 1.06 1.21 1.35 1.52 1.65 1.60 1.58 1.63 1.68 1.67 1.64 1.61 1.55 1.47 1.41 1.43 1.47 1.50 1.58 1.70 1.77 1.81 1.93 2.11 2.26 2.19 2.38 2.76 2.77 2.62 2.53 2.33 2.31 2.36 2.25 1.96 1.80 1.52
0.59 0.70 0.78 0.89 1.06 1.22 1.28 1.28 1.38 1.49 1.46 1.43 1.41 1.39 1.46 1.47 1.41 1.32 1.30 1.34 1.43 1.42 1.36 1.39 1.50 1.62 1.79 1.85 1.90 1.93 1.91 2.01 2.26 2.35 2.53 2.63 2.39 2.26 2.14 2.07 2.12 1.90 1.63
0.86 1.01 1.12 1.23 1.27 1.32 1.39 1.31 1.29 1.35 1.35 1.30 1.21 1.20 1.26 1.32 1.32 1.24 1.25 1.24 1.24 1.16 1.08 1.08 1.15 1.23 1.29 1.38 1.53 1.62 1.75 1.79 1.91 2.06 2.20 2.36 2.46 2.36 2.13 2.04 2.03 2.02 1.85
1.11 1.39 1.64 1.80 1.63 1.37 1.29 1.27 1.20 1.21 1.29 1.28 1.20 1.14 1.21 1.22 1.20 1.22 1.19 1.19 1.18 1.09 1.00 0.96 0.93 0.92 0.88 0.92 1.12 1.32 1.45 1.54 1.69 1.87 2.01 2.05 2.11 2.29 2.23 2.03 2.00 1.94 1.84
1.24 1.40 1.59 1.77 1.68 1.37 1.15 1.18 1.23 1.21 1.21 1.21 1.19 1.16 1.13 1.03 1.02 1.06 1.06 1.04 1.04 1.08 1.06 0.96 0.89 0.98 0.98 0.94 1.01 1.07 1.15 1.21 1.34 1.47 1.59 1.75 2.01 2.31 2.32 2.25 2.12 1.99 1.86
1.15 1.14 1.19 1.26 1.29 1.15 0.97 0.94 1.10 1.17 1.14 1.12 1.13 1.09 0.99 0.93 0.90 0.89 0.85 0.74 0.71 0.74 0.83 0.92 0.86 0.84 0.88 0.91 0.97 0.99 1.03 1.07 1.16 1.25 1.38 1.55 1.83 2.17 2.38 2.45 2.33 2.17 2.02
1.13 1.09 1.01 0.95 0.98 0.95 0.87 0.84 0.98 1.13 1.18 1.16 1.02 0.91 0.86 0.83 0.82 0.74 0.69 0.66 0.58 0.57 0.62 0.71 0.71 0.80 0.89 0.91 0.94 0.95 0.98 1.01 1.10 1.24 1.29 1.34 1.52 1.71 1.92 2.11 2.23 2.21 2.18
0.82 0.77 0.71 0.66 0.67 0.70 0.74 0.79 0.90 1.00 1.12 1.24 1.14 0.99 0.89 0.83 0.79 0.72 0.69 0.65 0.63 0.64 0.69 0.80 0.82 0.77 0.76 0.81 0.93 0.96 0.92 0.90 0.94 1.01 1.11 1.20 1.24 1.39 1.53 1.65 1.84 2.05 2.29
0.43 0.43 0.42 0.40 0.41 0.41 0.41 0.50 0.65 0.80 1.00 1.23 1.22 1.07 0.99 0.93 0.79 0.72 0.71 0.69 0.73 0.71 0.72 0.81 0.91 0.96 0.90 0.87 0.96 0.92 0.90 0.91 0.89 0.92 0.93 1.00 1.01 1.07 1.25 1.30 1.53 1.85 2.12
0.30 0.30 0.28 0.26 0.22 0.21 0.23 0.24 0.34 0.53 0.71 0.88 0.96 0.92 0.83 0.73 0.69 0.68 0.66 0.63 0.62 0.58 0.57 0.60 0.66 0.75 0.80 1.00 0.96 0.79 0.75 0.80 0.86 0.91 0.90 0.92 0.86 0.83 0.90 1.03 1.16 1.46 1.68
0.24 0.24 0.23 0.23 0.22 0.22 0.21 0.22 0.26 0.34 0.45 0.59 0.69 0.68 0.63 0.56 0.54 0.57 0.55 0.51 0.46 0.47 0.44 0.44 0.45 0.51 0.66 0.75 0.59 0.57 0.61 0.75 0.86 0.93 0.95 0.91 0.85 0.89 0.90 0.92 0.93 1.00 1.18
0.23 0.22 0.23 0.20 0.19 0.19 0.19 0.21 0.23 0.25 0.28 0.35 0.41 0.43 0.42 0.41 0.41 0.42 0.42 0.41 0.40 0.39 0.38 0.43 0.50 0.51 0.53 0.61 0.51 0.48 0.57 0.76 0.89 0.89 0.85 0.92 0.93 0.95 1.01 0.94 1.01 0.97 0.95
0.14 0.13 0.13 0.11 0.09 0.09 0.11 0.12 0.14 0.16 0.17 0.18 0.21 0.22 0.23 0.27 0.32 0.33 0.37 0.45 0.47 0.44 0.44 0.54 0.61 0.55 0.49 0.54 0.54 0.58 0.71 0.83 0.91 0.87 0.87 0.94 0.99 1.12 1.17 1.07 1.13 1.09 1.06
0.06 0.06 0.05 0.05 0.04 0.05 0.06 0.07 0.09 0.10 0.11 0.11 0.11 0.15 0.17 0.19 0.23 0.28 0.31 0.32 0.33 0.39 0.46 0.47 0.45 0.45 0.52 0.60 0.57 0.67 0.84 0.96 1.06 1.01 1.00 1.19 1.14 1.12 1.07 1.05 1.19 1.16 1.02
0.05 0.05 0.03 0.03 0.04 0.04 0.05 0.05 0.06 0.08 0.10 0.13 0.14 0.16 0.17 0.18 0.20 0.17 0.15 0.17 0.22 0.25 0.26 0.28 0.33 0.40 0.54 0.59 0.62 0.80 0.88 0.95 1.09 1.11 1.07 1.01 1.15 1.09 1.01 1.00 1.05 1.19 1.07
0.05 0.05 0.05 0.05 0.05 0.04 0.05 0.05 0.06 0.08 0.10 0.11 0.13 0.14 0.13 0.12 0.14 0.13 0.11 0.12 0.15 0.19 0.22 0.25 0.29 0.35 0.40 0.47 0.53 0.66 0.78 0.87 1.03 1.11 1.02 0.91 1.14 1.09 1.00 0.91 0.93 1.08 1.15
0.06 0.07 0.09 0.12 0.11 0.08 0.06 0.06 0.07 0.09 0.10 0.11 0.13 0.14 0.14 0.13 0.11 0.09 0.10 0.11 0.13 0.16 0.20 0.24 0.30 0.38 0.42 0.42 0.50 0.55 0.63 0.76 0.94 0.99 1.00 1.01 1.04 0.95 0.90 0.99 1.02 1.05 1.07
0.06 0.10 0.14 0.16 0.17 0.13 0.10 0.09 0.09 0.10 0.11 0.11 0.12 0.13 0.15 0.16 0.12 0.11 0.11 0.10 0.11 0.14 0.19 0.26 0.32 0.37 0.42 0.44 0.55 0.65 0.66 0.75 0.82 0.81 0.83 0.87 0.83 0.82 0.86 0.92 1.01 1.06 1.12
0.04 0.08 0.14 0.15 0.15 0.14 0.14 0.12 0.12 0.10 0.10 0.11 0.13 0.13 0.16 0.18 0.14 0.11 0.10 0.11 0.11 0.16 0.21 0.25 0.30 0.31 0.34 0.41 0.53 0.68 0.77 0.88 0.96 0.95 0.83 0.83 0.82 0.80 0.80 0.84 0.88 0.93 0.94
0.03 0.05 0.08 0.10 0.11 0.12 0.14 0.11 0.11 0.11 0.11 0.12 0.13 0.13 0.12 0.13 0.14 0.15 0.12 0.11 0.11 0.13 0.15 0.16 0.19 0.25 0.30 0.31 0.35 0.47 0.63 0.81 1.07 1.29 1.23 1.19 1.10 1.01 0.90 0.84 0.79 0.77 0.79